Regional Weather Roundup
Issued by NWS

Home | Current Version | Previous Version | Text Only | Print | Product List | Glossary Off
Versions: 1 2 3 4 5 6 7 8 9 10 11 12 13 14 15 16 17 18 19 20 21 22 23 24 25 26 27 28 29 30 31 32 33 34 35 36 37 38 39 40 41 42 43 44 45 46 47 48 49 50

000
ASUS43 KLSX 012107
RWRMO

WEATHER SUMMARY FOR MISSOURI
NATIONAL WEATHER SERVICE SPRINGFIELD MO
400 PM CDT WED JUL 01 2015

NOTE: "FAIR" INDICATES FEW OR NO CLOUDS BELOW 12,000 FEET WITH NO
       SIGNIFICANT WEATHER AND/OR OBSTRUCTIONS TO VISIBILITY.
       CURRENT SKY AND/OR WEATHER CONDITIONS ARE NOT AVAILABLE FOR
       CHILLICOTHE AND FARMINGTON.

MOZ001>031-035>038-043-044-053-054-012200-
...NORTHERN AND WESTERN MISSOURI...

CITY           SKY/WX    TMP DP  RH WIND       PRES   REMARKS
KANSAS CTY INT PTSUNNY   83  73  72 VRB3      29.83S
KANSAS C DTWN  PTSUNNY   85  73  67 S6        29.80F HX  91
LEE`S SUMMIT   MOSUNNY   81  72  74 S9        29.84F
ST JOSEPH      MOSUNNY   83  74  74 SE5       29.82F
CHILLICOTHE      N/A     84  73  69 CALM      29.85F HX  90
KIRKSVILLE     PTSUNNY   80  67  64 CALM      29.88S

$$
MOZ066>068-077>081-088>096-101>105-012200-
...SOUTHWEST MISSOURI...

CITY           SKY/WX    TMP DP  RH WIND       PRES   REMARKS
SPRINGFIELD    PTSUNNY   81  72  74 S17       29.88F
JOPLIN         CLOUDY    85  74  69 S14       29.86F HX  92

$$
MOZ032>034-039>042-045>050-055>058-069>072-012200-
...CENTRAL MISSOURI...

CITY           SKY/WX    TMP DP  RH WIND       PRES   REMARKS
COLUMBIA       MOSUNNY   79  69  71 SW5       29.87F
JEFFERSON CITY MOSUNNY   80  68  66 CALM      29.85F
ROLLA          PTSUNNY   78  69  73 S8        29.89F
SEDALIA        CLOUDY    80  73  79 VRB6      29.87F
WHITEMAN AFB   PTSUNNY   82  74  76 S9        29.84F
WARRENSBURG    MOSUNNY   82  72  69 S7        29.84F
OSAGE BEACH    MOSUNNY   81  73  78 S6        29.87S

$$
MOZ051-052-059>065-012200-
...EAST CENTRAL MISSOURI...

CITY           SKY/WX    TMP DP  RH WIND       PRES   REMARKS
ST LOUIS INTL  PTSUNNY   85  69  58 NW6       29.87R
SPIRIT OF STL  PTSUNNY   84  71  65 NW3       29.85F
ST CHARLES     PTSUNNY   82  70  66 NW5       29.86R

$$
MOZ072>076-082>087-097>100-106>115-012200-
...SOUTH CENTRAL AND SOUTHEAST MISSOURI...

CITY           SKY/WX    TMP DP  RH WIND       PRES   REMARKS
CAPE GIRARDEAU MOSUNNY   82  69  64 W16       29.89S
FARMINGTON     PTSUNNY   82  70  65 NW6       29.95R
WEST PLAINS    PTSUNNY   74  67  78 SW7       29.95F

$$


USA.gov is the U.S. government's official web portal to all federal, state and local government web resources and services.